Content
SEND FEEDBACK

Daily
Averages
Monthly
Summary
United States of America

CASTALIA, OHIO


Home > North America > United States > Ohio
Elevation: 589 feet     Latitude: 41 27N     Longitude: 082 43W

WEATHER
 
SELECT A DAY
Number of Records: 180,605;   Date Range: 10/8/98 - 9/16/14
 
SHARE

PRINT THIS DATA

[ ← Previous Day ]
WEATHER ALMANAC - JUNE 9, 2014
[ Next Day → ]
[ °C ]   °F
Weather ElementAverageHighLow
Temperature61.3 °F73.9 °F (5:53 pm)53.1 °F (5:10 am)
Dewpoint54.2 °F59 °F (12:53 pm)50 °F (5:10 am)
Humidity78.4 %90 % (4:24 am)53 % (5:53 pm)
Barometer29.97 in30.00 in (9:53 am)29.93 in (4:53 pm)
Wind Speed3.8 mph9.2 mph (4:53 pm)
Weather ElementAverage
Visibility5.4 mi
Wind DirectionESE (102.5 °)

Weather ElementTotal
Precipitation---
Heating Degree Days1.5 (Base 65)
Growing Degree Days13.5 (Base 50)
Averaged from 28 records on June 9, 2014
WEATHER CONDITIONS BREAKOUT
WIND DIRECTION BREAKOUT
WEATHER BY HOUR - JUNE 9, 2014
[ °C ]   °F
Local TimeTemperatureDewpointHumidityBarometerVisibilityWind DirectionWind SpeedGust SpeedPrecipitationEventsConditions
1:53 AM57.9 °F53.1 °F84 %29.97 in4.0 miCalmHaze
2:53 AM57.0 °F53.1 °F87 %29.99 in7.0 miCalmClear
3:53 AM55.9 °F52.0 °F87 %29.99 in4.0 miCalmClear
4:02 AM55.0 °F51.1 °F86 %29.99 in1.5 miWSW (250°)4.6 mphClear
4:11 AM55.0 °F51.1 °F86 %29.99 in0.5 miWest (260°)3.5 mphFogFog
4:24 AM54.0 °F51.1 °F90 %29.99 in1.0 miCalmClear
4:31 AM55.0 °F51.1 °F86 %29.99 in0.8 miCalmClear
4:53 AM55.0 °F51.1 °F86 %29.98 in0.5 miCalmFogFog
5:10 AM53.1 °F50.0 °F89 %29.98 in0.2 miCalmFogFog
5:23 AM53.1 °F50.0 °F89 %29.97 in0.5 miCalmFogFog
5:46 AM53.1 °F50.0 °F89 %29.97 in1.0 miWNW (290°)3.5 mphClear
5:53 AM53.1 °F50.0 °F89 %29.96 in1.0 miNW (310°)5.8 mphClear
6:13 AM55.0 °F51.1 °F86 %29.97 in2.0 miVariable4.6 mphClear
6:36 AM57.0 °F53.1 °F87 %29.99 in4.0 miNNW (340°)4.6 mphClear
6:53 AM57.0 °F54.0 °F89 %29.98 in4.0 miCalmClear
7:53 AM62.1 °F57.0 °F84 %29.99 in6.0 miNNE (30°)3.5 mphHaze
8:53 AM66.9 °F57.9 °F73 %29.99 in10.0 miNE (40°)6.9 mphClear
9:53 AM70.0 °F57.9 °F65 %30.00 in10.0 miNNE (20°)8.1 mphPartly Cloudy
11:53 AM70.0 °F57.9 °F65 %29.99 in10.0 miNorth (360°)6.9 mphClear
12:53 PM73.0 °F59.0 °F61 %30.00 in9.0 miVariable6.9 mphClear
1:53 PM69.1 °F57.9 °F68 %29.99 in10.0 miNorth (360°)6.9 mphClear
4:53 PM73.0 °F57.0 °F57 %29.93 in10.0 miENE (60°)9.2 mphClear
5:53 PM73.9 °F55.9 °F53 %29.95 in10.0 miNorth (10°)5.8 mphClear
7:53 PM73.0 °F55.9 °F55 %29.94 in10.0 miNNE (30°)8.1 mphClear
8:53 PM69.1 °F57.0 °F65 %29.94 in10.0 miNE (50°)4.6 mphClear
9:53 PM66.0 °F57.0 °F73 %29.94 in10.0 miNE (50°)4.6 mphClear
10:53 PM63.0 °F57.0 °F81 %29.95 in8.0 miNorth (360°)4.6 mphClear
11:53 PM62.1 °F57.0 °F84 %29.96 in5.0 miNE (50°)3.5 mphHaze
Hourly data recorded from KLPR, located miles away from Castalia, Ohio







STORIES FROM OUR PARTNERS